Location: Bauerbach
(50.4985°N, 10.3912°E)
Time: 14:18:56
(UTC+00:00)

Cosmos 2184 Rocket - Pass Details

Date: 13 January 2026
Orbit: 958 x 1001 km, 82.9° (Epoch: 9 February)

Event Time Altitude Azimuth Distance (km) Brightness Sun altitude
Rises 06:10:33 0° 214° (SW) 3,658 6.9 -9.8°
Reaches altitude 10° 06:13:15 10° 222° (SW) 2,709 6.1 -9.4°
Maximum altitude 06:18:59 38° 290° (WNW) 1,429 4.4 -8.6°
Drops below altitude 10° 06:24:43 10° 358° (N) 2,706 6.1 -7.8°
Sets 06:27:25 0° 6° (N) 3,655 6.8 -7.4°
